Franklin, NC

9:54 AM EDT on October 01, 2016 (GMT -0400)
Franklin

Weather History for K1A5 - December, 2013

Change the Weather History Date:

Thursday, December 12, 2013

  Actual Average (KTOC) Record (KTOC)
Temperature  
Mean Temperature 32 °F -  
Max Temperature 43 °F 55 °F 74 °F (2015)
Min Temperature 20 °F 36 °F 29 °F (2014)
Degree Days  
Heating Degree Days 34    
Moisture  
Dew Point 11 °F    
Average Humidity 51    
Maximum Humidity 87    
Minimum Humidity 10    
Precipitation  
Precipitation 0.01 in - - ()
Sea Level Pressure  
Sea Level Pressure 30.36 in    
Wind  
Wind Speed 4 mph (NW)    
Max Wind Speed 10 mph    
Max Gust Speed 17 mph    
Visibility 10 miles    
Events      
Averages and records for this station are not official NWS values.
T = Trace of Precipitation, MM = Missing Value Source: NWS Daily Summary

Daily Weather History Graph

Daily Weather History Graph

Search for Another Location

Airport or City:

Trip Planner

Search our weather history database for the weather conditions in past years. The results will help you decide how hot, cold, wet, or windy it might be!

Date:

Astronomy

Dec. 12, 2013 Rise Set
Actual Time 7:32 AM EST 5:22 PM EST
Civil Twilight 7:04 AM EST 5:50 PM EST
Nautical Twilight 6:33 AM EST 6:22 PM EST
Astronomical Twilight 6:02 AM EST 6:52 PM EST
Moon 2:21 PM EST (12/12) 3:02 AM EST (12/12)
Length of Visible Light 10h 45m
Length of Day
9h 49m
Waxing Gibbous, 80% of the Moon is Illuminated
Dec 12
Waxing Gibbous
Dec 17
Full
Dec 25
Last Quarter
Jan 1
New
Jan 7
First Quarter

Hourly Weather History & Observations

Time (EST) Temp. Windchill Dew Point Humidity Pressure Visibility Wind Dir Wind Speed Gust Speed Precip Events Conditions
12:15 AM 36.0 °F 33.3 °F 20.3 °F 53% 30.33 in 10.0 mi NNW 3.5 mph - N/A   Clear
12:35 AM 35.1 °F 30.1 °F 19.6 °F 53% 30.34 in 10.0 mi North 5.8 mph - N/A   Clear
12:55 AM 34.7 °F 31.8 °F 18.5 °F 52% 30.34 in 10.0 mi NNW 3.5 mph - N/A   Clear
1:15 AM 34.2 °F 29.0 °F 17.1 °F 50% 30.34 in 10.0 mi North 5.8 mph - N/A   Clear
1:35 AM 33.8 °F 29.6 °F 16.3 °F 49% 30.34 in 10.0 mi NNW 4.6 mph - N/A   Clear
1:55 AM 33.6 °F 27.5 °F 15.8 °F 48% 30.34 in 10.0 mi North 6.9 mph - N/A   Clear
2:15 AM 33.3 °F 27.1 °F 15.8 °F 49% 30.34 in 10.0 mi NNW 6.9 mph - N/A   Clear
2:35 AM 32.4 °F 27.9 °F 16.2 °F 51% 30.34 in 10.0 mi NNW 4.6 mph - N/A   Clear
2:55 AM 32.2 °F 28.9 °F 16.5 °F 53% 30.34 in 10.0 mi North 3.5 mph - N/A   Clear
3:15 AM 32.4 °F 27.9 °F 16.7 °F 53% 30.34 in 10.0 mi NNE 4.6 mph - N/A   Clear
3:35 AM 32.0 °F 28.7 °F 17.4 °F 55% 30.34 in 10.0 mi North 3.5 mph - N/A   Clear
3:55 AM 30.7 °F - 18.0 °F 59% 30.34 in 10.0 mi Calm Calm - N/A   Clear
4:15 AM 30.0 °F 26.5 °F 18.3 °F 62% 30.34 in 10.0 mi NNE 3.5 mph - N/A   Clear
4:35 AM 30.2 °F 25.4 °F 18.5 °F 62% 30.33 in 10.0 mi North 4.6 mph - N/A   Clear
4:55 AM 30.6 °F - 18.1 °F 60% 30.33 in 10.0 mi Calm Calm - N/A   Clear
5:15 AM 28.9 °F 23.9 °F 18.5 °F 65% 30.34 in 10.0 mi NNW 4.6 mph - N/A   Clear
5:35 AM 30.0 °F 24.1 °F 18.5 °F 62% 30.35 in 10.0 mi NNW 5.8 mph - N/A   Clear
5:55 AM 30.0 °F 26.5 °F 17.8 °F 60% 30.35 in 10.0 mi NW 3.5 mph - N/A   Clear
6:15 AM 29.1 °F 25.4 °F 17.8 °F 63% 30.36 in 10.0 mi NW 3.5 mph - N/A   Clear
6:35 AM 26.8 °F - 18.1 °F 70% 30.37 in 10.0 mi Calm Calm - N/A   Clear
6:55 AM 23.5 °F 19.1 °F 18.5 °F 81% 30.37 in 10.0 mi WSW 3.5 mph - N/A   Clear
7:15 AM 23.0 °F - 18.7 °F 84% 30.37 in 10.0 mi Calm Calm - N/A   Clear
7:35 AM 21.9 °F 17.2 °F 18.1 °F 85% 30.38 in 10.0 mi WSW 3.5 mph - N/A   Clear
7:55 AM 22.1 °F - 17.8 °F 83% 30.39 in 10.0 mi Calm Calm - N/A   Clear
8:15 AM 22.6 °F - 18.7 °F 85% 30.38 in 10.0 mi Calm Calm - N/A   Clear
8:35 AM 24.6 °F - 19.9 °F 82% 30.38 in 10.0 mi Calm Calm - N/A   Clear
8:55 AM 27.5 °F 21.1 °F 19.8 °F 73% 30.39 in 10.0 mi NW 5.8 mph - N/A   Clear
9:15 AM 32.0 °F 27.5 °F 14.2 °F 48% 30.39 in 10.0 mi NW 4.6 mph - N/A   Clear
9:35 AM 32.9 °F 28.5 °F 12.4 °F 43% 30.39 in 10.0 mi WNW 4.6 mph - N/A   Clear
9:55 AM 33.8 °F 27.0 °F 11.3 °F 39% 30.39 in 10.0 mi NNW 8.1 mph - N/A   Clear
10:15 AM 34.7 °F 28.8 °F 10.2 °F 36% 30.40 in 10.0 mi NW 6.9 mph - N/A   Clear
10:35 AM 36.1 °F 30.6 °F 9.7 °F 33% 30.40 in 10.0 mi NW 6.9 mph - N/A   Clear
10:55 AM 37.2 °F 31.9 °F 7.7 °F 29% 30.40 in 10.0 mi NW 6.9 mph - N/A   Clear
11:15 AM 38.8 °F 33.8 °F 6.1 °F 26% 30.40 in 10.0 mi NW 6.9 mph - N/A   Clear
11:35 AM 39.6 °F 34.7 °F 3.2 °F 22% 30.39 in 10.0 mi North 6.9 mph 16.1 mph N/A   Clear
11:55 AM 40.8 °F 36.9 °F 0.5 °F 19% 30.39 in 10.0 mi NW 5.8 mph - N/A   Clear
12:15 PM 41.7 °F 37.3 °F -0.8 °F 17% 30.38 in 10.0 mi NNW 6.9 mph - N/A   Clear
12:35 PM 42.3 °F 39.4 °F -4.2 °F 14% 30.37 in 10.0 mi NNW 4.6 mph - N/A   Clear
12:55 PM 42.3 °F 38.6 °F -8.3 °F 12% 30.37 in 10.0 mi NW 5.8 mph - N/A   Clear
1:15 PM 42.8 °F 38.6 °F -9.6 °F 11% 30.36 in 10.0 mi NNW 6.9 mph - N/A   Clear
1:35 PM 43.2 °F 37.9 °F -9.9 °F 10% 30.36 in 10.0 mi NW 9.2 mph - N/A   Clear
1:55 PM 42.8 °F 37.0 °F -9.8 °F 11% 30.36 in 10.0 mi NW 10.4 mph 17.3 mph N/A   Clear
2:15 PM 43.2 °F 38.4 °F -10.7 °F 10% 30.36 in 10.0 mi NW 8.1 mph - N/A   Clear
2:35 PM 42.8 °F 37.0 °F -9.8 °F 11% 30.36 in 10.0 mi NW 10.4 mph - N/A   Clear
2:55 PM 43.0 °F 39.5 °F -8.9 °F 11% 30.35 in 10.0 mi West 5.8 mph - N/A   Clear
3:15 PM 43.2 °F 40.5 °F -8.3 °F 11% 30.34 in 10.0 mi WNW 4.6 mph 16.1 mph N/A   Clear
3:35 PM 43.2 °F 38.4 °F -7.6 °F 12% 30.35 in 10.0 mi WNW 8.1 mph - N/A   Clear
3:55 PM 42.6 °F 37.8 °F -8.5 °F 11% 30.35 in 10.0 mi WNW 8.1 mph - N/A   Clear
4:15 PM 42.1 °F 37.1 °F -7.8 °F 12% 30.35 in 10.0 mi NW 8.1 mph - N/A   Clear
4:35 PM 41.2 °F 36.6 °F -6.9 °F 13% 30.35 in 10.0 mi NW 6.9 mph - N/A   Clear
4:55 PM 40.3 °F 36.3 °F -7.8 °F 13% 30.34 in 10.0 mi NW 5.8 mph - N/A   Clear
5:15 PM 37.6 °F - -0.6 °F 20% 30.34 in 10.0 mi Calm Calm - N/A   Clear
5:35 PM 32.7 °F - 13.3 °F 45% 30.34 in 10.0 mi Calm Calm - N/A   Clear
5:55 PM 30.4 °F - 16.0 °F 55% 30.35 in 10.0 mi Calm Calm - N/A   Clear
6:15 PM 28.9 °F - 16.9 °F 61% 30.36 in 10.0 mi Calm Calm - N/A   Clear
6:35 PM 27.3 °F - 16.5 °F 64% 30.36 in 10.0 mi Calm Calm - N/A   Clear
6:55 PM 29.1 °F 25.4 °F 15.3 °F 56% 30.37 in 10.0 mi WSW 3.5 mph - N/A   Clear
7:15 PM 27.1 °F 23.2 °F 16.9 °F 65% 30.37 in 10.0 mi WSW 3.5 mph - N/A   Clear
7:35 PM 27.1 °F - 18.3 °F 69% 30.38 in 10.0 mi Calm Calm - N/A   Clear
7:55 PM 26.2 °F - 16.2 °F 66% 30.38 in 10.0 mi Calm Calm - N/A   Clear
8:15 PM 26.1 °F - 18.5 °F 73% 30.38 in 10.0 mi Calm Calm - N/A   Clear
8:35 PM 25.5 °F - 17.1 °F 70% 30.37 in 10.0 mi Calm Calm - N/A   Clear
8:55 PM 24.3 °F - 17.2 °F 75% 30.37 in 10.0 mi Calm Calm - N/A   Clear
9:15 PM 24.1 °F - 18.3 °F 79% 30.38 in 10.0 mi Calm Calm - N/A   Clear
9:35 PM 23.0 °F - 17.6 °F 80% 30.37 in 10.0 mi Calm Calm - N/A   Clear
9:55 PM 23.0 °F - 19.2 °F 85% 30.36 in 10.0 mi Calm Calm - N/A   Clear
10:15 PM 22.5 °F - 18.1 °F 83% 30.36 in 10.0 mi Calm Calm - N/A   Clear
10:35 PM 22.1 °F - 18.7 °F 87% 30.36 in 10.0 mi Calm Calm - N/A   Clear
10:55 PM 21.4 °F - 16.9 °F 83% 30.37 in 10.0 mi Calm Calm - N/A   Clear
11:15 PM 20.8 °F - 17.1 °F 85% 30.37 in 10.0 mi Calm Calm - N/A   Clear
11:35 PM 21.2 °F - 17.4 °F 85% 30.37 in 10.0 mi Calm Calm - N/A   Clear
11:55 PM 20.8 °F - 17.2 °F 86% 30.37 in 10.0 mi Calm Calm - N/A   Clear